Regional Weather Roundup
Issued by NWS

Home | Current Version | Previous Version | Graphics & Text | Print | Product List | Glossary On
Versions: 1 2 3 4 5 6 7 8 9 10 11 12 13 14 15 16 17 18 19 20 21 22 23 24 25 26 27 28 29 30 31 32 33 34 35 36 37 38 39 40 41 42 43 44 45 46 47 48 49
000
ASUS45 KBOU 062207
RWRCO

WEATHER ROUNDUP FOR COLORADO
NATIONAL WEATHER SERVICE DENVER/BOULDER CO
300 PM MST FRI MAR 06 2015

NOTE: "FAIR" INDICATES FEW OR NO CLOUDS BELOW 12000 FEET WITH NO
SIGNIFICANT WEATHER AND/OR OBSTRUCTIONS TO VISIBILITY.

COZ001>005-013-030-031-062300-
...NORTHWEST COLORADO...

CITY           SKY/WX    TMP DP  RH WIND       PRES   REMARKS
CRAIG          SUNNY     45  18  34 CALM      30.37F
HAYDEN         SUNNY     39  12  33 CALM      30.37F
MEEKER         SUNNY     48  15  26 SW8       30.36F
MOUNT WERNER   NOT AVBL
STEAMBOAT SPGS SUNNY     39  13  33 CALM      30.37F
WALDEN         SUNNY     36  14  41 S10G16    30.34S
$$

COZ006>008-011-062300-
...WEST CENTRAL VALLEYS...

CITY           SKY/WX    TMP DP  RH WIND       PRES   REMARKS
GRAND JUNCTION SUNNY     54  15  21 SE5       30.35F
MONTROSE       SUNNY     48  21  34 VRB3      30.36F
EAGLE          SUNNY     46  16  29 CALM      30.36R
RIFLE          SUNNY     52  13  21 VRB3      30.35F
DELTA          SUNNY     53  13  20 CALM      30.35F
NUCLA          SUNNY     50  14  23 NW6       30.37F
$$

COZ017>023-064>068-062300-
...SOUTHWEST COLORADO...

CITY           SKY/WX    TMP DP  RH WIND       PRES   REMARKS
DURANGO        SUNNY     46  17  31 NE3       30.33F
CORTEZ         SUNNY     52  20  28 NE6       30.32F
PAGOSA SPRINGS SUNNY     48   7  18 CALM      30.34S
TELLURIDE      SUNNY     42   0  17 W14       30.37S
WOLF CREEK PAS SUNNY     30  10  43 SW13G18   30.44S WCI  20
$$

COZ009-010-012-014-032>034-037-058>063-062300-
...CENTRAL COLORADO...

CITY           SKY/WX    TMP DP  RH WIND       PRES   REMARKS
ASPEN          SUNNY     42   8  24 NW5       30.34F
BUENA VISTA    SUNNY     46   6  20 S7        30.29F
COPPER MTN     SUNNY     34   3  27 W14       30.40R WCI  24
BERTHOUD PASS  NOT AVBL
COTTONWOOD PAS SUNNY     43   1  17 SE5       30.33S
GUNNISON       SUNNY     27  10  50 CALM      30.42F
KREMMLING      SUNNY     36  18  48 CALM      30.38F
LEADVILLE      SUNNY     34   7  32 NW20      30.33S WCI  23
SALIDA         SUNNY     53   8  16 SW13G21   30.35S
SUNLIGHT       SUNNY     32  18  55 CALM        N/A
WILKERSON PASS SUNNY     34   1  25 W7        30.37S WCI  28
$$

COZ069>075-062300-
...SAN LUIS VALLEY/SANGRE DE CRISTO MOUNTAINS...

CITY           SKY/WX    TMP DP  RH WIND       PRES   REMARKS
ALAMOSA        SUNNY     43  14  31 S5        30.33F
LA VETA PASS   SUNNY     39   7  26 S9G17     30.35S
SAGUACHE       SUNNY     43  14  31 S6        30.34S
$$

COZ035-036-038>040-062300-
...NORTHERN COLORADO FRONT RANGE...

CITY           SKY/WX    TMP DP  RH WIND       PRES   REMARKS
DENVER INTL AP SUNNY     49  24  37 SE8       30.23S
DMNS CITY PARK   N/A     51  10  19 E9        30.21S
AURORA         NOT AVBL
FRONT RANGE AP NOT AVBL
ERIE MUNI ARPT SUNNY     51  14  22 E6        30.23S
BOULDER MUN AP SUNNY     48  18  29 NW5       30.22F
CENTENNIAL     SUNNY     48  17  29 S6        30.23S
BROOMFIELD     SUNNY     48  21  34 N6        30.23F
FORT COLLINS   SUNNY     46  21  36 S3        30.25F
LONGMONT       SUNNY     55  20  25 N5        30.25S
$$

COZ041-046-047-076>085-087-088-062300-
...PIKES PEAK/PALMER DIVIDE AND SOUTHERN FOOTHILLS...

CITY           SKY/WX    TMP DP  RH WIND       PRES   REMARKS
COLO. SPRINGS  SUNNY     49  13  23 SE9       30.25F
A. F. ACADEMY  NOT AVBL
ELLICOTT       NOT AVBL
FALCON         SUNNY     48  18  29 CALM      30.27S
FORT CARSON    NOT AVBL
LIMON          SUNNY     42  27  55 N5        30.26S
MONUMENT HILL  SUNNY     43  21  42 SE9       30.25S
TRINIDAD       SUNNY     56  22  26 NE5G16    30.24F
$$

COZ042>045-048>051-090-091-062300-
...NORTHEAST COLORADO...

CITY           SKY/WX    TMP DP  RH WIND       PRES   REMARKS
GREELEY ARPT   SUNNY     55  16  21 SW7       30.21S
AKRON          SUNNY     55  16  21 W13       30.22F
BURLINGTON     SUNNY     56  19  23 W14G20    30.24S
WRAY           SUNNY     62  14  15 W20       30.20S
STERLING       SUNNY     59  16  18 NW12G17   30.20R
HOLYOKE        SUNNY     63  14  15 NW15      30.19S
FORT MORGAN    SUNNY     57  12  16 NW8       30.22F
$$

COZ086-089-092>099-062300-
...SOUTHEAST COLORADO...

CITY           SKY/WX    TMP DP  RH WIND       PRES   REMARKS
PUEBLO         SUNNY     57  17  21 CALM      30.22F
LA JUNTA       SUNNY     59  21  23 W3        30.22F
LAMAR          SUNNY     61  17  18 SW8       30.22S
SPRINGFIELD      N/A     58  18  21 S10G17    30.24F
$$



USA.gov is the U.S. government's official web portal to all federal, state and local government web resources and services.